Bloomington, IL

11:01 AM CDT on July 23, 2016 (GMT -0500)
Central Ill Regional

Weather History for KBMI - June, 2013

Change the Weather History Date:

Sunday, June 16, 2013

  Actual Average Record
Temperature  
Mean Temperature 73 °F -  
Max Temperature 82 °F 85 °F 92 °F (2007)
Min Temperature 65 °F 56 °F 37 °F (1997)
Cooling Degree Days 8    
Growing Degree Days 23 (Base 50)    
Moisture  
Dew Point 67 °F    
Average Humidity 81    
Maximum Humidity 97    
Minimum Humidity 63    
Precipitation  
Precipitation 0.01 in - - ()
Sea Level Pressure  
Sea Level Pressure 29.94 in    
Wind  
Wind Speed 10 mph (WSW)    
Max Wind Speed 16 mph    
Max Gust Speed -    
Visibility 10 miles    
Events      
Averages and records for this station are not official NWS values.
T = Trace of Precipitation, MM = Missing Value Source: NWS Daily Summary

Daily Weather History Graph

Daily Weather History Graph

Search for Another Location

Airport or City:

Trip Planner

Search our weather history database for the weather conditions in past years. The results will help you decide how hot, cold, wet, or windy it might be!

Date:

Astronomy

Jun. 16, 2013 Rise Set
Actual Time 5:24 AM CDT 8:28 PM CDT
Civil Twilight 4:51 AM CDT 9:01 PM CDT
Nautical Twilight 4:09 AM CDT 9:43 PM CDT
Astronomical Twilight 3:19 AM CDT 10:33 PM CDT
Moon 1:02 PM CDT (6/16) 12:31 AM CDT (6/16)
Length of Visible Light 16h 09m
Length of Day
15h 03m
Waxing Crescent, 50% of the Moon is Illuminated
Jun 16
Waxing Crescent
Jun 16
First Quarter
Jun 23
Full
Jun 29
Last Quarter
Jul 8
New

Hourly Weather History & Observations

Time (CDT) Temp. Heat Index Dew Point Humidity Pressure Visibility Wind Dir Wind Speed Gust Speed Precip Events Conditions
12:56 AM 66.9 °F - 64.9 °F 93% 29.93 in 10.0 mi SSW 9.2 mph - 0.01 in   Clear
1:56 AM 66.9 °F - 64.9 °F 93% 29.90 in 10.0 mi SSW 10.4 mph - N/A   Clear
2:56 AM 66.9 °F - 64.9 °F 93% 29.92 in 10.0 mi SW 9.2 mph - 0.00 in   Clear
3:56 AM 66.9 °F - 64.9 °F 93% 29.92 in 10.0 mi SW 12.7 mph - 0.00 in   Partly Cloudy
4:56 AM 66.9 °F - 63.9 °F 90% 29.92 in 10.0 mi WSW 8.1 mph - N/A   Clear
5:56 AM 65.8 °F - 64.9 °F 97% 29.96 in 10.0 mi WSW 9.2 mph - N/A   Partly Cloudy
6:56 AM 68.0 °F - 64.9 °F 90% 29.96 in 10.0 mi WSW 9.2 mph - N/A   Clear
7:56 AM 70.9 °F - 65.8 °F 84% 29.97 in 10.0 mi WSW 13.8 mph - N/A   Mostly Cloudy
8:56 AM 68.9 °F - 64.9 °F 87% 29.97 in 10.0 mi WSW 11.5 mph - N/A   Overcast
9:56 AM 70.9 °F - 66.9 °F 87% 29.96 in 10.0 mi WSW 10.4 mph - N/A   Overcast
10:26 AM 73.4 °F - 66.2 °F 78% 29.99 in 10.0 mi WSW 11.5 mph - N/A   Overcast
10:56 AM 72.9 °F - 66.9 °F 82% 29.96 in 10.0 mi WSW 10.4 mph - N/A   Overcast
11:56 AM 75.9 °F - 66.9 °F 74% 29.96 in 10.0 mi WSW 11.5 mph - N/A   Mostly Cloudy
12:56 PM 75.9 °F - 66.9 °F 74% 29.95 in 10.0 mi WSW 11.5 mph - N/A   Mostly Cloudy
1:48 PM 77.0 °F - 69.8 °F 78% 29.98 in 10.0 mi SW 12.7 mph - N/A   Mostly Cloudy
1:56 PM 77.9 °F - 68.9 °F 74% 29.95 in 10.0 mi SW 16.1 mph - N/A   Mostly Cloudy
2:18 PM 78.8 °F - 69.8 °F 74% 29.98 in 10.0 mi WSW 13.8 mph - N/A   Mostly Cloudy
2:56 PM 79.0 °F - 68.9 °F 71% 29.94 in 10.0 mi SW 12.7 mph - N/A   Mostly Cloudy
3:56 PM 81.9 °F 84.8 °F 68.0 °F 63% 29.92 in 10.0 mi WSW 12.7 mph - N/A   Mostly Cloudy
4:56 PM 81.0 °F 83.8 °F 68.0 °F 65% 29.92 in 10.0 mi West 9.2 mph - N/A   Mostly Cloudy
5:56 PM 79.9 °F - 68.0 °F 67% 29.91 in 10.0 mi West 11.5 mph - N/A   Mostly Cloudy
6:56 PM 81.0 °F 83.8 °F 68.0 °F 65% 29.91 in 10.0 mi West 8.1 mph - N/A   Mostly Cloudy
7:56 PM 79.0 °F - 68.0 °F 69% 29.91 in 10.0 mi West 8.1 mph - N/A   Partly Cloudy
8:56 PM 75.9 °F - 68.0 °F 76% 29.91 in 10.0 mi WSW 3.5 mph - N/A   Clear
9:56 PM 72.0 °F - 68.0 °F 87% 29.93 in 10.0 mi SW 4.6 mph - N/A   Clear
10:56 PM 72.0 °F - 68.0 °F 87% 29.94 in 10.0 mi WSW 4.6 mph - N/A   Clear
11:56 PM 70.0 °F - 66.9 °F 90% 29.95 in 10.0 mi SW 3.5 mph - N/A   Clear